• In Russia
  • List of Countries
  • For 7 days
  • Water Temperature
  • Satellite Maps
  • Weather Map
  • Weather Widgets
  • user-avatar
    Login

    Hourly Weather Zemledelec

    Today, 25 April, Thursday

    Time Temperature Precipitation Wind Pressure Humidity
    00:00 +14°C° 0 mm 2 mps 749 mmHg 54%
    01:00 +14°C° 0 mm 2 mps 749 mmHg 56%
    02:00 +14°C° 0 mm 2 mps 749 mmHg 57%
    03:00 +13°C° 0 mm 2 mps 749 mmHg 58%
    04:00 +13°C° 0 mm 2 mps 749 mmHg 60%
    05:00 +12°C° 0 mm 2 mps 749 mmHg 62%
    06:00 +12°C° 0 mm 2 mps 749 mmHg 63%
    07:00 +14°C° 0 mm 2 mps 749 mmHg 58%
    08:00 +16°C° 0 mm 2 mps 749 mmHg 53%
    09:00 +18°C° 0 mm 2 mps 749 mmHg 48%
    10:00 +19°C° 0 mm 2 mps 749 mmHg 44%
    11:00 +21°C° 0 mm 3 mps 749 mmHg 40%
    12:00 +22°C° 0 mm 3 mps 749 mmHg 35%
    13:00 +24°C° 0 mm 3 mps 748 mmHg 34%
    14:00 +24°C° 0 mm 3 mps 748 mmHg 33%
    15:00 +24°C° 0 mm 3 mps 748 mmHg 32%
    16:00 +24°C° 0 mm 2 mps 747 mmHg 34%
    17:00 +24°C° 0 mm 2 mps 747 mmHg 36%
    18:00 +24°C° 0 mm 2 mps 747 mmHg 38%
    19:00 +21°C° 0 mm 2 mps 747 mmHg 42%
    20:00 +19°C° 0 mm 2 mps 747 mmHg 45%
    21:00 +18°C° 0 mm 2 mps 747 mmHg 49%
    22:00 +17°C° 0 mm 2 mps 747 mmHg 50%
    23:00 +17°C° 0 mm 2 mps 747 mmHg 52%

    Tomorrow, 26 April, Friday

    Time Temperature Precipitation Wind Pressure Humidity
    00:00 +16°C° 0 mm 2 mps 747 mmHg 53%
    01:00 +16°C° 0 mm 2 mps 747 mmHg 54%
    02:00 +16°C° 0 mm 2 mps 746 mmHg 55%
    03:00 +15°C° 0 mm 2 mps 746 mmHg 56%
    04:00 +15°C° 0 mm 2 mps 746 mmHg 58%
    05:00 +15°C° 0 mm 2 mps 746 mmHg 59%
    06:00 +15°C° 0 mm 2 mps 746 mmHg 61%
    07:00 +16°C° 0.1 mm 2 mps 746 mmHg 59%
    08:00 +16°C° 0.1 mm 1 mps 746 mmHg 58%
    09:00 +18°C° 0.1 mm 1 mps 747 mmHg 57%
    10:00 +19°C° 0.1 mm 1 mps 747 mmHg 54%
    11:00 +19°C° 0.1 mm 1 mps 746 mmHg 51%
    12:00 +20°C° 0.1 mm 1 mps 746 mmHg 49%
    13:00 +20°C° 0 mm 1 mps 746 mmHg 51%
    14:00 +19°C° 0 mm 1 mps 746 mmHg 53%
    15:00 +18°C° 0 mm 2 mps 746 mmHg 55%
    16:00 +19°C° 0 mm 2 mps 745 mmHg 54%
    17:00 +20°C° 0 mm 1 mps 745 mmHg 53%
    18:00 +20°C° 0 mm 1 mps 745 mmHg 51%
    19:00 +19°C° 0.1 mm 1 mps 745 mmHg 55%
    20:00 +16°C° 0.1 mm 1 mps 745 mmHg 58%
    21:00 +15°C° 0.1 mm 1 mps 745 mmHg 62%
    22:00 +14°C° 0 mm 1 mps 745 mmHg 64%
    23:00 +14°C° 0 mm 1 mps 744 mmHg 65%

    Day after tomorrow, 27 April, Saturday

    Time Temperature Precipitation Wind Pressure Humidity
    00:00 +14°C° 0 mm 1 mps 744 mmHg 67%
    01:00 +14°C° 0 mm 1 mps 744 mmHg 68%
    02:00 +14°C° 0 mm 1 mps 744 mmHg 68%
    03:00 +13°C° 0 mm 0 mps 744 mmHg 69%
    04:00 +13°C° 0 mm 1 mps 743 mmHg 70%
    05:00 +13°C° 0 mm 1 mps 743 mmHg 72%
    06:00 +13°C° 0 mm 1 mps 743 mmHg 74%
    07:00 +14°C° 0 mm 1 mps 743 mmHg 69%
    08:00 +16°C° 0 mm 1 mps 742 mmHg 64%
    09:00 +17°C° 0 mm 2 mps 742 mmHg 59%
    10:00 +19°C° 0 mm 2 mps 742 mmHg 52%
    11:00 +20°C° 0 mm 3 mps 742 mmHg 45%
    12:00 +21°C° 0 mm 3 mps 741 mmHg 38%
    13:00 +21°C° 0 mm 4 mps 741 mmHg 38%
    14:00 +21°C° 0 mm 4 mps 741 mmHg 38%
    15:00 +21°C° 0 mm 4 mps 740 mmHg 38%
    16:00 +21°C° 0 mm 4 mps 740 mmHg 42%
    17:00 +20°C° 0 mm 3 mps 739 mmHg 45%
    18:00 +20°C° 0 mm 3 mps 739 mmHg 49%
    19:00 +19°C° 0 mm 3 mps 739 mmHg 54%
    20:00 +17°C° 0 mm 3 mps 739 mmHg 58%
    21:00 +16°C° 0 mm 3 mps 739 mmHg 63%
    22:00 +14°C° 0 mm 3 mps 738 mmHg 64%
    23:00 +13°C° 0 mm 3 mps 738 mmHg 66%

    28 April, Sunday

    Time Temperature Precipitation Wind Pressure Humidity
    00:00 +13°C° 0 mm 3 mps 738 mmHg 67%
    01:00 +12°C° 0 mm 3 mps 737 mmHg 69%
    02:00 +12°C° 0 mm 3 mps 737 mmHg 71%
    03:00 +11°C° 0 mm 3 mps 737 mmHg 72%
    04:00 +11°C° 0 mm 3 mps 737 mmHg 75%
    05:00 +11°C° 0 mm 3 mps 736 mmHg 77%
    06:00 +11°C° 0 mm 3 mps 736 mmHg 79%
    07:00 +12°C° 0 mm 3 mps 736 mmHg 78%
    08:00 +13°C° 0 mm 3 mps 735 mmHg 77%
    09:00 +14°C° 0 mm 3 mps 735 mmHg 77%
    10:00 +13°C° 0.5 mm 4 mps 735 mmHg 80%
    11:00 +12°C° 0.5 mm 5 mps 736 mmHg 83%
    12:00 +11°C° 0.5 mm 6 mps 736 mmHg 86%
    13:00 +10°C° 0 mm 6 mps 737 mmHg 81%
    14:00 +10°C° 0 mm 7 mps 737 mmHg 77%
    15:00 +10°C° 0 mm 7 mps 738 mmHg 72%
    16:00 +9°C° 0 mm 7 mps 739 mmHg 70%
    17:00 +9°C° 0 mm 7 mps 739 mmHg 68%
    18:00 +9°C° 0 mm 7 mps 740 mmHg 66%
    19:00 +8°C° 0 mm 6 mps 741 mmHg 65%
    20:00 +7°C° 0 mm 6 mps 741 mmHg 64%
    21:00 +6°C° 0 mm 5 mps 742 mmHg 63%
    22:00 +5°C° 0 mm 5 mps 743 mmHg 66%
    23:00 +4°C° 0 mm 4 mps 743 mmHg 68%

    29 April, Monday

    Time Temperature Precipitation Wind Pressure Humidity
    00:00 +3°C° 0 mm 4 mps 743 mmHg 71%
    01:00 +3°C° 0 mm 4 mps 744 mmHg 70%
    02:00 +1°C° 0 mm 4 mps 744 mmHg 69%
    03:00 0°C° 0 mm 5 mps 745 mmHg 67%
    04:00 0°C° 0 mm 5 mps 745 mmHg 67%
    05:00 0°C° 0 mm 5 mps 745 mmHg 66%
    06:00 -1°C° 0 mm 5 mps 746 mmHg 65%
    07:00 0°C° 0 mm 5 mps 746 mmHg 57%
    08:00 +1°C° 0 mm 6 mps 746 mmHg 49%
    09:00 +3°C° 0 mm 6 mps 747 mmHg 42%
    10:00 +3°C° 0 mm 6 mps 747 mmHg 40%
    11:00 +4°C° 0 mm 6 mps 747 mmHg 39%
    12:00 +5°C° 0 mm 6 mps 747 mmHg 38%
    13:00 +7°C° 0 mm 5 mps 746 mmHg 38%
    14:00 +7°C° 0 mm 5 mps 746 mmHg 38%
    15:00 +8°C° 0 mm 5 mps 746 mmHg 38%
    16:00 +7°C° 0 mm 5 mps 746 mmHg 38%
    17:00 +7°C° 0 mm 4 mps 746 mmHg 39%
    18:00 +7°C° 0 mm 4 mps 746 mmHg 40%
    19:00 +7°C° 0 mm 3 mps 746 mmHg 45%
    20:00 +5°C° 0 mm 3 mps 746 mmHg 49%
    21:00 +5°C° 0 mm 2 mps 746 mmHg 53%
    22:00 +4°C° 0 mm 2 mps 747 mmHg 55%
    23:00 +4°C° 0 mm 2 mps 747 mmHg 58%

    30 April, Tuesday

    Time Temperature Precipitation Wind Pressure Humidity
    00:00 +3°C° 0 mm 2 mps 747 mmHg 60%
    01:00 +3°C° 0 mm 2 mps 747 mmHg 62%
    02:00 +2°C° 0 mm 2 mps 747 mmHg 63%
    03:00 +2°C° 0 mm 2 mps 747 mmHg 65%
    04:00 +1°C° 0 mm 2 mps 747 mmHg 65%
    05:00 +1°C° 0 mm 2 mps 747 mmHg 66%
    06:00 +1°C° 0 mm 2 mps 747 mmHg 66%
    07:00 +2°C° 0 mm 3 mps 748 mmHg 60%
    08:00 +4°C° 0 mm 3 mps 748 mmHg 53%
    09:00 +5°C° 0 mm 3 mps 748 mmHg 46%
    10:00 +7°C° 0 mm 3 mps 748 mmHg 43%
    11:00 +8°C° 0 mm 3 mps 747 mmHg 40%
    12:00 +9°C° 0 mm 3 mps 747 mmHg 37%
    13:00 +9°C° 0 mm 3 mps 747 mmHg 37%
    14:00 +9°C° 0 mm 3 mps 746 mmHg 36%
    15:00 +10°C° 0 mm 3 mps 746 mmHg 36%
    16:00 +10°C° 0 mm 3 mps 746 mmHg 37%
    17:00 +9°C° 0 mm 3 mps 746 mmHg 39%
    18:00 +9°C° 0 mm 3 mps 745 mmHg 40%
    19:00 +8°C° 0 mm 3 mps 746 mmHg 44%
    20:00 +7°C° 0 mm 2 mps 746 mmHg 48%
    21:00 +6°C° 0 mm 2 mps 746 mmHg 52%
    22:00 +5°C° 0 mm 2 mps 746 mmHg 54%
    23:00 +5°C° 0 mm 2 mps 746 mmHg 55%
    Show more